Hourly Weather Roundup
Issued by NWS Central Illinois

Home | Current Version | Previous Version | Text Only | Print | Product List | Glossary On
Versions: 1 2 3 4 5 6 7 8 9 10 11 12 13 14 15 16 17 18 19 20 21 22 23 24 25 26 27 28 29 30 31 32 33 34 35 36 37 38 39 40 41 42 43 44 45 46 47 48 49 50
000
NZUS43 KILX 290010
HWRILX

Area Weather Roundup
National Weather Service Lincoln IL
700 PM CDT WED JUN 28 2017

NOTE:  "FAIR" indicates few or no clouds below 12,000 feet, with
       no sigificant weather and/or obstructions to visibility.


CITY           SKY/WX    TMP DP  RH WIND       PRES   REMARKS
Bloomington    SUNNY     81  64  56 S24       29.84S HX  82
6HR MIN TEMP:  78; 6HR MAX TEMP:  84;

Champaign      SUNNY     82  59  45 S20G30    29.87F HX  82
6HR MIN TEMP:  80; 6HR MAX TEMP:  84;

Danville       SUNNY     79  62  55 S17       29.87F HX  80
6HR MIN TEMP:  77; 6HR MAX TEMP:  81;

Decatur        SUNNY     82  61  48 S16G24    29.86F HX  83
6HR MIN TEMP:  80; 6HR MAX TEMP:  84;

Effingham      MOSUNNY   82  64  52 SE9       29.92F HX  84
6HR MIN TEMP:  81; 6HR MAX TEMP:  85;

Flora          SUNNY     84  63  49 S23       29.91F HX  85
Galesburg      CLOUDY    81  65  58 S12G18    29.78S HX  82
6HR MIN TEMP:  75; 6HR MAX TEMP:  82; 6HR PCP:  0.01;

Jacksonville   SUNNY     84  64  50 S14G22    29.82R HX  85
6HR MIN TEMP:  80; 6HR MAX TEMP:  86;

Lacon          MOSUNNY   80  64  58 S14G20    29.78R HX  82
6HR MIN TEMP:  74; 6HR MAX TEMP:  82;

Lawrenceville  SUNNY     81  62  52 S16       29.95F HX  82
6HR MIN TEMP:  80; 6HR MAX TEMP:  83;

Litchfield     SUNNY     81  62  51 S16G24    29.86F HX  82
6HR MIN TEMP:  79; 6HR MAX TEMP:  83;

$$


CITY           SKY/WX    TMP DP  RH WIND       PRES   REMARKS
Lincoln        SUNNY     83  64  53 S17G26    29.83R HX  84
6HR MIN TEMP:  80; 6HR MAX TEMP:  86;

Macomb         SUNNY     83  62  49 S14G22    29.80S HX  83
6HR MIN TEMP:  79; 6HR MAX TEMP:  84;

Mattoon        SUNNY     81  64  56 S14G24    29.90F HX  82
6HR MIN TEMP:  78; 6HR MAX TEMP:  82;

Mt Carmel AP   MOSUNNY   81  61  49 S15       29.94F HX  82
6HR MIN TEMP:  79; 6HR MAX TEMP:  83;

Olney-Noble AP SUNNY     81  65  59 S17G23    29.92F HX  83
Paris AP       SUNNY     79  64  59 S14G22    29.92F HX  81
6HR MIN TEMP:  77; 6HR MAX TEMP:  81;

Peoria         PTSUNNY   83  62  49 S17G28    29.79R HX  84
6HR MIN TEMP:  79; 6HR MAX TEMP:  86;

Pontiac        SUNNY     82  62  51 S16G26    29.83S HX  82
6HR MIN TEMP:  79; 6HR MAX TEMP:  84;

Rantoul        SUNNY     83  61  47 S22G29    29.86F HX  83
6HR MIN TEMP:  81; 6HR MAX TEMP:  85;

Robinson       SUNNY     80  62  54 S6        29.94F HX  81
6HR MIN TEMP:  79; 6HR MAX TEMP:  83;

Springfield    SUNNY     85  65  51 S17G24    29.83F HX  86
6HR MIN TEMP:  81; 6HR MAX TEMP:  87;

Taylorville    SUNNY     82  63  52 S13G26    29.85F HX  83
6HR MIN TEMP:  78; 6HR MAX TEMP:  84;

$$

...REGIONAL REPORTS...


CITY           SKY/WX    TMP DP  RH WIND       PRES   REMARKS
Chicago O`Hare CLOUDY    79  61  53 S20G28    29.76F HX  80
Kankakee       MOSUNNY   80  62  53 S16       29.84F HX  81
Moline         PTSUNNY   81  68  64 S13       29.71F HX  84
Mount Sterling SUNNY     82  64  55 S9        29.80R HX  83
Mount Vernon   MOSUNNY   83  65  54 S14G21    29.92F HX  85
Pittsfield     SUNNY     84  64  51 S8        29.83R HX  85
Quincy         SUNNY     84  63  49 S13       29.79R HX  85
Rockford       CLOUDY    77  66  68 S17       29.73F
$$


CITY           SKY/WX    TMP DP  RH WIND       PRES   REMARKS
Burlington     CLOUDY    83  69  62 S13G21    29.76R HX  86
Cedar Rapids   LGT RAIN  80  72  76 S17G30    29.65S HX  84
Des Moines     CLOUDY    73  67  81 S10       29.66S
Kirksville     CLOUDY    82  68  62 SW8       29.79R HX  85
Ottumwa        LGT RAIN  79  72  79 S14G23    29.71R HX  82
St Louis       MOSUNNY   88  59  37 S17G33    29.85F HX  87
$$


CITY           SKY/WX    TMP DP  RH WIND       PRES   REMARKS
Terre Haute    SUNNY     80  58  46 S15G29    29.94F HX  80
Evansville     CLOUDY    81  59  47 S9        29.98S HX  81
Indianapolis   PTSUNNY   78  56  46 S14       29.98S
Lafayette      PTSUNNY   78  58  49 S10G22    29.90F
Madison        TSTM      70  68  93 NW12G17   29.73R FOG
Milwaukee      CLOUDY    72  67  84 S7        29.74F
$$






USA.gov is the U.S. government's official web portal to all federal, state and local government web resources and services.